{"data":{"norad_id":69591,"epoch":"2026-09-20T02:08:47.128704Z","epoch_age_seconds":64444,"freshness":"FRESH","line1":"1 69591U 26139C   26263.08943436  .00001408  00000+0  96325-4 0  9998","line2":"2 69591  52.9947 191.8239 0002933 227.5721 132.5022 15.12742388 14353","mean_motion":15.12742388,"eccentricity":0.0002933,"inclination_deg":52.9947,"raan_deg":191.8239,"arg_perigee_deg":227.5721,"mean_anomaly_deg":132.5022,"bstar":9.6325e-5,"rev_number":1435,"period_min":95.191356533866,"perigee_km":525.81547611258,"apogee_km":529.86652280706,"semimajor_km":6905.9779994598,"source":"CELESTRAK","updated_at":"2026-09-20T09:00:24.997849Z"}}